Overview Statistics Trail Chart Weather Telemetry Raw packets
 

This is the latest recevied weather packets stored in our database for station/object K6CEG. If no packets are shown the sender has not sent any weather packets the latest 10 day(s).

<< 78 79 80 81 82 83 84 >>
Time Temp. Humidity Pressure Rain* Wind** Luminosity Snow
1788109480 30.56° C 50% 1014.5 hPa 0 mm - 586 W/m² -
1788109178 30° C 52% 1014.2 hPa 0 mm - 426 W/m² -
1788108875 28.33° C 54% 1014.5 hPa 0 mm - 393 W/m² -
1788108571 28.89° C 54% 1014.3 hPa 0 mm - 269 W/m² -
1788108266 30° C 51% 1014.5 hPa 0 mm - 303 W/m² -
1788107968 30° C 51% 1014.4 hPa 0 mm - 475 W/m² -
1788107659 28.89° C 53% 1014.6 hPa 0 mm - 610 W/m² -
1788107358 28.33° C 55% 1014.5 hPa 0 mm - 544 W/m² -
1788107054 27.78° C 56% 1014.6 hPa 0 mm - 484 W/m² -
1788106748 27.78° C 56% 1014.5 hPa 0 mm - 430 W/m² -
1788106449 28.33° C 55% 1014.5 hPa 0 mm - 395 W/m² -
1788106149 27.78° C 56% 1014.6 hPa 0 mm - 122 W/m² -
1788105845 27.78° C 55% 1014.5 hPa 0 mm - 367 W/m² -
1788105540 27.22° C 56% 1014.4 hPa 0 mm - 350 W/m² -
1788105236 26.67° C 58% 1014.6 hPa 0 mm - 303 W/m² -
1788104931 26.11° C 60% 1014.4 hPa 0 mm - 290 W/m² -
1788104627 26.11° C 60% 1014.4 hPa 0 mm - 181 W/m² -
1788104324 25.56° C 61% 1014.6 hPa 0 mm - 216 W/m² -
1788104019 25.56° C 61% 1014.6 hPa 0 mm - 147 W/m² -
1788103717 25.56° C 61% 1014.5 hPa 0 mm - 142 W/m² -
1788103413 26.11° C 60% 1014.8 hPa 0 mm - 157 W/m² -
1788103113 26.11° C 60% 1014.7 hPa 0 mm - 240 W/m² -
1788102812 25.56° C 62% 1014.6 hPa 0 mm - 221 W/m² -
1788102507 25° C 63% 1014.8 hPa 0 mm - 213 W/m² -
1788102207 25° C 63% 1014.9 hPa 0 mm - 187 W/m² -

* Rain latest hour (hover to see other rain measurements)
** Current wind speed in m/s (hover to see current wind gust speed)